[[{"header":{"parameterUnit":"m.s-1","parameterCategory":1,"la1":30.2991,"la2":30.254,"lo1":-89.0895,"lo2":-89.0444,"dy":0.0017,"dx":0.0017,"nx":28,"ny":28,"refTime":"2024-02-16T09:00:00:Z","depth":0,"parameterNumber":2,"parameterNumberName":"U-component_of_WINDS"},"data":[0,0,0,0,0,0,0,0,0,0,0,0,0,0,0,0,0,0,0,0,0,0,0,0,0,0,0,0,0,0,0,0,0,0,0,0,0,0,0,0,0,0,0,0,0,0,0,0,0,0,0,0,0,0,0,0,0,0,-0.1704,-0.1704,0,-0.1747,-0.1747,-0.1748,-0.174,-0.1739,-0.1739,-0.1738,-0.1785,-0.1787,-0.1789,0,0,0,0,0,0,0,0,0,0,0,0,0,-0.1617,-0.1618,-0.1704,-0.1704,-0.1705,-0.1747,-0.1747,-0.1748,-0.174,-0.1739,-0.1738,-0.1737,-0.1784,-0.1786,-0.1789,0,0,0,0,0,0,0,0,0,0,0,0,0,-0.1657,-0.1619,-0.1704,-0.1706,-0.1707,-0.1747,-0.1748,-0.1748,-0.174,-0.1739,-0.1738,-0.1737,-0.1783,-0.1786,-0.1789,-0.1831,0,0,-0.1798,-0.1799,0,0,0,0,0,0,0,0,-0.1654,-0.166,-0.1705,-0.1706,-0.1707,-0.1737,-0.1734,-0.1776,-0.1741,-0.1728,-0.1738,-0.1736,-0.177,-0.1774,-0.1785,-0.1833,-0.1835,-0.1798,-0.18,-0.1801,-0.1802,0,0,0,0,0,0,0,-0.1652,-0.1658,-0.1721,-0.1706,-0.1707,-0.1705,-0.171,-0.1742,-0.1755,-0.1729,-0.1728,-0.1733,-0.177,-0.1782,-0.1786,-0.1835,-0.1798,-0.1801,-0.1803,-0.1804,-0.1919,-0.192,0,0,0,0,0,0,-0.1648,-0.1656,-0.172,-0.1722,-0.1677,-0.1708,-0.1713,-0.1728,-0.1755,-0.1757,-0.1734,-0.1733,-0.1777,-0.1782,-0.1787,-0.1837,-0.1801,-0.1804,-0.1806,-0.1918,-0.1919,-0.1921,0,0,0,0,0,0,-0.1646,-0.1654,-0.1718,-0.1689,-0.1697,-0.1711,-0.1728,-0.173,-0.1742,-0.1759,-0.1761,-0.1744,-0.1777,-0.1783,-0.182,-0.1839,-0.1806,-0.1808,-0.1916,-0.1918,-0.192,-0.1938,0,0,0,0,0,0,-0.1644,-0.1653,-0.1669,-0.1689,-0.1699,-0.1749,-0.1729,-0.1732,-0.1746,-0.1745,-0.1768,-0.1771,-0.1776,-0.1815,-0.1822,-0.1842,-0.1811,-0.1915,-0.1917,-0.1919,-0.1936,-0.194,-0.1944,0,0,0,0,0,-0.1641,-0.1673,-0.167,-0.1677,-0.1718,-0.175,-0.1756,-0.176,-0.1748,-0.1764,-0.1775,-0.177,-0.1835,-0.1819,-0.1827,-0.1848,-0.1913,-0.1916,-0.1919,-0.1934,-0.194,-0.1944,0,0,0,0,0,0,-0.1656,-0.1676,-0.1672,-0.1712,-0.1729,-0.1749,-0.1769,-0.1766,-0.1788,-0.1786,-0.1791,-0.1797,-0.1833,-0.1844,-0.1826,-0.1889,-0.1873,-0.1877,-0.1881,-0.1887,-0.1891,-0.1888,-0.1813,0,0,0,0,0,-0.1663,-0.1687,-0.1703,-0.1737,-0.1746,-0.1756,-0.177,-0.1772,-0.179,-0.1798,-0.1811,-0.183,-0.1855,-0.1871,-0.1895,-0.1937,-0.1942,-0.1955,-0.1959,-0.1963,-0.1967,-0.199,-0.1996,-0.193,-0.193,-0.193,0,0,-0.168,-0.1694,-0.1709,-0.174,-0.1754,-0.1779,-0.1762,-0.1789,-0.1808,-0.1802,-0.1837,-0.1848,-0.1869,-0.1908,-0.1926,-0.1919,-0.1986,-0.1967,-0.1969,-0.1972,-0.1994,-0.2,-0.2005,-0.1932,-0.1932,-0.1931,0,0,-0.1724,-0.1736,-0.1765,-0.1779,-0.1799,-0.1805,-0.1812,-0.1832,-0.1838,-0.1873,-0.1869,-0.1891,-0.1933,-0.1949,-0.1962,-0.2009,-0.2006,-0.2016,-0.2039,-0.2061,-0.2066,-0.2071,-0.2088,-0.2094,-0.202,-0.202,-0.2021,0,-0.1742,-0.1779,-0.1781,-0.1808,-0.1822,-0.1816,-0.1846,-0.1859,-0.1887,-0.1897,-0.1887,-0.1939,-0.1953,-0.1996,-0.2007,-0.2018,-0.2026,-0.2015,-0.2065,-0.207,-0.2074,-0.2091,-0.2097,-0.2022,-0.2022,-0.2021,-0.2021,0,-0.1801,-0.1826,-0.1847,-0.1872,-0.1889,-0.1917,-0.1924,-0.194,-0.194,-0.1947,-0.1983,-0.1999,-0.2025,-0.2035,-0.2036,-0.2078,-0.2072,-0.2064,-0.2047,-0.2082,-0.2097,-0.2104,-0.2023,-0.2023,-0.2023,-0.2022,0,0,-0.1857,-0.1881,-0.1889,-0.19,-0.1921,-0.1941,-0.1969,-0.1994,-0.2008,-0.2026,-0.205,-0.2085,-0.2077,-0.2092,-0.2094,-0.2113,-0.2149,-0.2102,-0.2103,-0.2111,-0.2196,-0.2203,-0.221,-0.2146,-0.2148,-0.2149,-0.2195,0,-0.1903,-0.1951,-0.1953,-0.1998,-0.2021,-0.2015,-0.2039,-0.2055,-0.2062,-0.2083,-0.2091,-0.2116,-0.2103,-0.2112,-0.2131,-0.2141,-0.2167,-0.2138,-0.217,-0.2171,-0.2165,-0.2218,-0.2226,-0.2269,-0.2201,-0.2202,-0.2203,0,-0.1963,-0.1982,-0.2029,-0.2045,-0.2055,-0.2077,-0.2099,-0.2119,-0.2137,-0.214,-0.2156,-0.2155,-0.2184,-0.2165,-0.2205,-0.2185,-0.2198,-0.2204,-0.2206,-0.221,-0.219,-0.2225,-0.2283,-0.2289,-0.2212,-0.2211,-0.2211,0,-0.2,-0.2037,-0.207,-0.2079,-0.2099,-0.2115,-0.2124,-0.214,-0.2154,-0.2174,-0.2183,-0.2206,-0.2219,-0.2237,-0.2242,-0.2228,-0.2281,-0.2263,-0.2286,-0.2286,-0.2299,-0.2298,-0.2361,-0.2306,-0.2306,-0.2305,-0.2305,0,-0.2052,-0.2081,-0.2086,-0.2106,-0.2138,-0.214,-0.2172,-0.218,-0.2194,-0.2216,-0.2212,-0.2233,-0.2237,-0.2259,-0.2263,-0.2295,-0.2301,-0.2305,-0.2306,-0.2306,-0.2306,-0.2316,-0.2313,-0.2307,-0.2307,-0.2306,-0.2306,0,-0.2099,-0.2104,-0.2139,-0.2154,-0.2159,-0.2182,-0.2195,-0.2215,-0.222,-0.2248,-0.2254,-0.2264,-0.2289,-0.2295,-0.2326,-0.2328,-0.2366,-0.2364,-0.2361,-0.2361,-0.2383,-0.2381,-0.2455,-0.2465,-0.2403,-0.2403,-0.2404,0,-0.2132,-0.2154,-0.2171,-0.2185,-0.2195,-0.2217,-0.2231,-0.2233,-0.2248,-0.2269,-0.2286,-0.231,-0.233,-0.237,-0.238,-0.2403,-0.2402,-0.2426,-0.2405,-0.2404,-0.2403,-0.2402,-0.2404,-0.243,-0.2431,-0.2431,-0.2432,0,-0.2191,-0.2192,-0.2212,-0.2233,-0.2249,-0.2266,-0.2282,-0.2293,-0.2298,-0.2315,-0.234,-0.2355,-0.2384,-0.2409,-0.2431,-0.2441,-0.2438,-0.2438,-0.2444,-0.2445,-0.2442,-0.2444,-0.2372,-0.2436,-0.2436,-0.2436,-0.2435,-0.2435,-0.2233,-0.2252,-0.2266,-0.2288,-0.23,-0.2315,-0.2333,-0.2341,-0.2361,-0.2385,-0.2385,-0.2412,-0.2428,-0.2458,-0.2469,-0.249,-0.2483,-0.2493,-0.2495,-0.2498,-0.25,-0.2438,-0.2495,-0.2494,-0.2494,-0.2494,-0.2494,0,-0.2292,-0.23,-0.232,-0.2342,-0.2359,-0.2352,-0.2369,-0.2384,-0.2408,-0.2423,-0.2442,-0.247,-0.2493,-0.2504,-0.2527,-0.2542,-0.254,-0.2548,-0.2547,-0.255,-0.2505,-0.2497,-0.2548,-0.2548,-0.2548,-0.2548,-0.2548,-0.2548,-0.2324,-0.2356,-0.2358,-0.2395,-0.2403,-0.2429,-0.2439,-0.2453,-0.2464,-0.2496,-0.2514,-0.2521,-0.2534,-0.2557,-0.2578,-0.2581,-0.259,-0.2598,-0.26,-0.2558,-0.2553,-0.2548,-0.254,-0.26,-0.26,-0.2643,-0.2643,-0.2643]},{"header":{"parameterUnit":"m.s-1","parameterCategory":1,"la1":30.2991,"la2":30.254,"lo1":-89.0895,"lo2":-89.0444,"dy":0.0017,"dx":0.0017,"nx":28,"ny":28,"refTime":"2024-02-16T09:00:00:Z","depth":0,"parameterNumber":3,"parameterNumberName":"V-component_of_WINDS"},"data":[0,0,0,0,0,0,0,0,0,0,0,0,0,0,0,0,0,0,0,0,0,0,0,0,0,0,0,0,0,0,0,0,0,0,0,0,0,0,0,0,0,0,0,0,0,0,0,0,0,0,0,0,0,0,0,0,0,0,-8.0913,-8.0915,0,-8.1062,-8.1064,-8.1065,-8.0998,-8.0995,-8.0991,-8.0987,-8.1133,-8.114,-8.1147,0,0,0,0,0,0,0,0,0,0,0,0,0,-8.0564,-8.0571,-8.0913,-8.0915,-8.0917,-8.1062,-8.1064,-8.1066,-8.0999,-8.0994,-8.099,-8.0986,-8.1131,-8.1139,-8.1148,0,0,0,0,0,0,0,0,0,0,0,0,0,-8.0714,-8.0573,-8.0913,-8.0901,-8.0901,-8.1061,-8.1064,-8.1066,-8.1,-8.0994,-8.0989,-8.0984,-8.1128,-8.1139,-8.1149,-8.1327,0,0,-8.1183,-8.1188,0,0,0,0,0,0,0,0,-8.0706,-8.0727,-8.0901,-8.0902,-8.0903,-8.1006,-8.0994,-8.1154,-8.1001,-8.0962,-8.0987,-8.0981,-8.1095,-8.1108,-8.1148,-8.1334,-8.134,-8.1184,-8.119,-8.1195,-8.1198,0,0,0,0,0,0,0,-8.0696,-8.072,-8.0972,-8.0903,-8.0905,-8.0886,-8.0901,-8.1024,-8.1057,-8.0965,-8.0961,-8.098,-8.1094,-8.1138,-8.1151,-8.1343,-8.1184,-8.1193,-8.12,-8.1204,-8.1683,-8.1688,0,0,0,0,0,0,-8.0686,-8.0712,-8.0967,-8.0976,-8.0789,-8.0897,-8.0914,-8.0978,-8.1056,-8.1063,-8.0984,-8.0976,-8.1122,-8.1138,-8.1156,-8.137,-8.1195,-8.1205,-8.1212,-8.1677,-8.1684,-8.1691,0,0,0,0,0,0,-8.0679,-8.071,-8.0961,-8.0843,-8.0874,-8.0909,-8.0982,-8.0984,-8.1028,-8.1071,-8.1075,-8.1023,-8.1118,-8.114,-8.1286,-8.1374,-8.121,-8.122,-8.1669,-8.1679,-8.1687,-8.18,0,0,0,0,0,0,-8.0669,-8.0708,-8.0777,-8.0845,-8.088,-8.1091,-8.0987,-8.0991,-8.1048,-8.1038,-8.1108,-8.1114,-8.1115,-8.127,-8.1297,-8.1386,-8.1229,-8.1661,-8.1674,-8.1684,-8.1788,-8.1812,-8.1832,0,0,0,0,0,-8.0657,-8.0801,-8.0781,-8.0812,-8.0968,-8.1096,-8.1116,-8.1116,-8.1055,-8.1124,-8.1152,-8.1112,-8.136,-8.1285,-8.1315,-8.1409,-8.1656,-8.167,-8.1683,-8.1779,-8.1807,-8.1831,0,0,0,0,0,0,-8.0739,-8.081,-8.0788,-8.0959,-8.1022,-8.1084,-8.1172,-8.1146,-8.1226,-8.1214,-8.1209,-8.1225,-8.1376,-8.1407,-8.1322,-8.1586,-8.1498,-8.1519,-8.156,-8.1588,-8.1609,-8.1599,-8.1238,0,0,0,0,0,-8.0778,-8.0878,-8.0933,-8.1078,-8.1111,-8.1137,-8.1192,-8.1187,-8.1252,-8.1277,-8.1315,-8.1378,-8.147,-8.153,-8.1617,-8.1792,-8.1806,-8.1871,-8.1893,-8.1911,-8.1928,-8.2024,-8.2053,-8.1736,-8.1736,-8.1735,0,0,-8.0857,-8.0908,-8.0971,-8.1096,-8.1144,-8.1247,-8.1159,-8.127,-8.1346,-8.1293,-8.1434,-8.1464,-8.1533,-8.1695,-8.1768,-8.1725,-8.2019,-8.1928,-8.1942,-8.195,-8.2041,-8.2071,-8.2098,-8.1745,-8.1744,-8.1742,0,0,-8.1055,-8.1103,-8.123,-8.1282,-8.1357,-8.1373,-8.1404,-8.1471,-8.149,-8.1631,-8.1595,-8.1682,-8.1841,-8.1892,-8.1939,-8.2157,-8.2123,-8.2185,-8.2298,-8.2391,-8.2416,-8.2438,-8.2516,-8.2544,-8.2202,-8.2203,-8.2203,0,-8.1143,-8.1298,-8.1298,-8.1414,-8.1469,-8.1429,-8.1557,-8.1606,-8.1705,-8.1743,-8.1695,-8.1894,-8.1937,-8.2111,-8.2164,-8.2203,-8.2237,-8.2177,-8.2413,-8.2435,-8.2456,-8.253,-8.2559,-8.221,-8.2209,-8.2208,-8.2208,0,-8.1404,-8.1511,-8.1604,-8.1705,-8.177,-8.1891,-8.1908,-8.1974,-8.1964,-8.1985,-8.2129,-8.218,-8.2277,-8.2317,-8.2307,-8.249,-8.2461,-8.2413,-8.2325,-8.2493,-8.2563,-8.2591,-8.222,-8.2217,-8.2215,-8.2213,0,0,-8.1656,-8.1757,-8.1791,-8.1836,-8.1917,-8.2,-8.2118,-8.2216,-8.2273,-8.2342,-8.2441,-8.2577,-8.2534,-8.2587,-8.2581,-8.2663,-8.2833,-8.2605,-8.2606,-8.2646,-8.3037,-8.3074,-8.3107,-8.2811,-8.2817,-8.2821,-8.3032,0,-8.186,-8.2071,-8.2075,-8.2268,-8.2367,-8.2331,-8.2434,-8.2494,-8.2516,-8.2602,-8.2625,-8.2722,-8.2657,-8.2689,-8.2768,-8.2796,-8.2912,-8.278,-8.2902,-8.2906,-8.2886,-8.3143,-8.3181,-8.3378,-8.3059,-8.3064,-8.3067,0,-8.2126,-8.2208,-8.2412,-8.248,-8.2521,-8.2615,-8.2705,-8.2788,-8.2854,-8.2865,-8.2925,-8.2908,-8.3027,-8.2936,-8.3099,-8.301,-8.3059,-8.308,-8.3088,-8.3099,-8.2997,-8.3162,-8.3441,-8.347,-8.311,-8.3106,-8.3103,0,-8.2291,-8.2452,-8.2595,-8.2634,-8.2717,-8.2783,-8.282,-8.2882,-8.2941,-8.3018,-8.3056,-8.3146,-8.3195,-8.3264,-8.3271,-8.3204,-8.3436,-8.3344,-8.3446,-8.3447,-8.3497,-8.3494,-8.3788,-8.3529,-8.3528,-8.3528,-8.3527,0,-8.2519,-8.2645,-8.267,-8.2758,-8.2898,-8.29,-8.3038,-8.3069,-8.3124,-8.3216,-8.3189,-8.3275,-8.3279,-8.3367,-8.3372,-8.3507,-8.3529,-8.354,-8.354,-8.3543,-8.3542,-8.3575,-8.3562,-8.3535,-8.3534,-8.3532,-8.3531,0,-8.2727,-8.2749,-8.2903,-8.2969,-8.2989,-8.3089,-8.3145,-8.3228,-8.3248,-8.3365,-8.3392,-8.3423,-8.3525,-8.3539,-8.3657,-8.3661,-8.3823,-8.3809,-8.3802,-8.38,-8.3901,-8.3892,-8.4228,-8.4272,-8.3983,-8.3986,-8.3988,0,-8.2871,-8.2968,-8.3046,-8.3107,-8.3148,-8.3247,-8.3307,-8.3313,-8.3377,-8.3461,-8.3533,-8.3633,-8.3714,-8.3878,-8.391,-8.4,-8.3988,-8.4099,-8.4001,-8.4001,-8.399,-8.3985,-8.3994,-8.4118,-8.4122,-8.4124,-8.4126,0,-8.3125,-8.3132,-8.3221,-8.3316,-8.339,-8.3464,-8.3533,-8.3584,-8.3598,-8.3671,-8.3777,-8.3839,-8.3962,-8.4061,-8.4151,-8.4186,-8.4159,-8.4157,-8.4186,-8.419,-8.4182,-8.4188,-8.3854,-8.4149,-8.4147,-8.4145,-8.4144,-8.4143,-8.3306,-8.339,-8.3459,-8.356,-8.3614,-8.368,-8.3762,-8.3793,-8.3882,-8.3985,-8.3982,-8.4098,-8.4162,-8.428,-8.4322,-8.4411,-8.4374,-8.4415,-8.4426,-8.4436,-8.4447,-8.4168,-8.4427,-8.4427,-8.4426,-8.4426,-8.4425,0,-8.3559,-8.3602,-8.3695,-8.3795,-8.3874,-8.3844,-8.3919,-8.3987,-8.4091,-8.4154,-8.4234,-8.4356,-8.4452,-8.4492,-8.4586,-8.465,-8.464,-8.4675,-8.467,-8.4679,-8.4474,-8.444,-8.4681,-8.4681,-8.4681,-8.4681,-8.4681,-8.4681,-8.37,-8.3842,-8.3857,-8.4024,-8.4065,-8.4182,-8.4227,-8.4287,-8.4338,-8.4476,-8.4557,-8.4584,-8.4637,-8.4735,-8.4822,-8.4831,-8.4866,-8.4907,-8.4911,-8.4719,-8.4693,-8.4668,-8.4637,-8.4915,-8.4915,-8.5108,-8.511,-8.5111]}]]